Home > Time Zones > World Clock > Weather > India > Betul > Past weeks

Flag for India Weather past 2 weeks in Betul, Madhya Pradesh, India

Now
77 °F

Passing clouds.


Feels Like: 79 °F
Forecast: 69 / 86 °F
Wind: 9 mph from Northwest

Location: Nagpur Sonegaon

Current Time: Sep 21, 2014 at 4:14:36 AM

Latest Report: Sep 21, 2014 at 3:40 AM


Visibility: 3 mi

Pressure: 29.68 "Hg

Humidity: 79%

Dew point: 70 °F

Location of BetulLocation

Historic Weather in Betul — Graph

°F

Betul temperature yesterday

Maximum temperature yesterday: 91 °F (at 2:10 PM)
Minimum temperature yesterday: 77 °F (at 5:10 AM)
Average temperature yesterday: 84 °F

Past Weeks' High & Low Weather Summary

 TemperatureHumidityPressure
High95 °F (Sep 19, 2:10 PM)100% (Sep 6, 7:10 PM)29.86 "Hg (Sep 6, 7:10 PM)
Low72 °F (Sep 8, 9:40 PM)50% (Sep 19, 2:10 PM)29.53 "Hg (Sep 7, 2:40 PM)
Average80 °F85%29.71 "Hg
* Reported Sep 6 1:40 AM — Sep 21 2:10 AM, Betul, Weather by CustomWeather, © 2014

Note: Actual official high and low records may vary slightly from our data, if they occured in-between our weather recording intervals... More about our weather records

Advertising

Betul weather history for previous 24 hours

 ConditionsComfort  
Time TempWeatherWind HumidityBarometerVisibility
2:10 AM
Sep 21
79 °FPartly cloudy.9 mph74%29.68 "Hg3 mi
1:40 AM79 °FPartly cloudy.6 mph74%29.71 "Hg3 mi
1:10 AM79 °FPartly cloudy.3 mph79%29.71 "Hg3 mi
12:40 AM81 °FPartly cloudy.3 mph74%29.71 "Hg3 mi
12:10 AM81 °FPartly cloudy.3 mph74%29.71 "Hg3 mi
11:40 PM
Sep 20
81 °FPartly cloudy.6 mph70%29.74 "Hg3 mi
11:10 PM81 °FPartly cloudy.6 mph70%29.74 "Hg3 mi
6:40 PM84 °FPartly sunny.7 mph74%29.68 "Hg2 mi
5:40 PM88 °FPartly sunny.9 mph62%29.65 "Hg3 mi
4:40 PM88 °FPartly sunny.9 mph66%29.62 "Hg3 mi
3:10 PM91 °FPartly sunny.9 mph56%29.62 "Hg4 mi
2:40 PM91 °FPartly sunny.9 mph56%29.62 "Hg4 mi
2:10 PM91 °FPartly sunny.9 mph56%29.65 "Hg4 mi
1:40 PM90 °FPartly sunny.9 mph59%29.68 "Hg4 mi
11:40 AM88 °FBroken clouds.7 mph66%29.74 "Hg4 mi
10:40 AM84 °FBroken clouds.7 mph70%29.77 "Hg2 mi
10:10 AM82 °FBroken clouds.6 mph74%29.77 "Hg2 mi
9:40 AM82 °FBroken clouds.7 mph74%29.77 "Hg2 mi
9:10 AM81 °FBroken clouds.7 mph79%29.77 "Hg2 mi
8:40 AM81 °FBroken clouds.6 mph79%29.77 "Hg2 mi
7:10 AM79 °FBroken clouds.9 mph79%29.74 "Hg2 mi
6:10 AM79 °FPassing clouds.5 mph79%29.71 "Hg2 mi
5:10 AM77 °FPassing clouds.6 mph83%29.68 "Hg2 mi
Weather by CustomWeather, © 2014

See weather overviewHow to use our weather pages